Home > Weather > Stanley > Past weeks

Flag for Falkland Islands Past Weather in Stanley, Falkland Islands — Yesterday and Last 2 Weeks

Now
41 °F

Drizzle. Broken clouds.


Feels Like: 33 °F
Forecast: 42 / 44 °F
Wind: 16 mph from North

Location: Mount Pleasant Airport

Current Time: May 29, 2016 at 10:28:22 AM

Latest Report: May 29, 2016 at 9:50 AM


Visibility: N/A

Pressure: 30.24 "Hg

Humidity: 93%

Dew Point: 39 °F

Location of StanleyLocation

Past Weather in Stanley — Graph

°F

Stanley Temperature Yesterday

Maximum temperature yesterday: 43 °F (at 12:50 PM)
Minimum temperature yesterday: 30 °F (at 4:50 AM)
Average temperature yesterday: 37 °F

High & Low Weather Summary for the Past Weeks

 TemperatureHumidityPressure
High48 °F (May 21, 8:50 AM)100% (May 14, 9:56 AM)30.51 "Hg (May 14, 9:56 AM)
Low28 °F (May 16, 1:50 AM)46% (May 21, 9:50 AM)29.59 "Hg (May 21, 8:50 AM)
Average38 °F88%30.13 "Hg
* Reported May 14 8:50 AM — May 29 8:50 AM, Stanley, Weather by CustomWeather, © 2016

Note: Actual official high and low records may vary slightly from our data, if they occured in-between our weather recording intervals... More about our weather records

Advertising

Stanley Weather History for the Previous 24 Hours

Scroll right to see more
 ConditionsComfort  
Time TempWeatherWind HumidityBarometerVisibility
8:50 AM
Sun, May 29
39 °FBroken clouds.17 mph100%30.24 "HgN/A
7:50 AM39 °FPassing clouds.23 mph93%30.24 "HgN/A
6:50 AM39 °FPassing clouds.25 mph93%30.24 "HgN/A
5:50 AM39 °FPassing clouds.22 mph93%30.24 "HgN/A
4:50 AM39 °FPassing clouds.13 mph93%30.27 "HgN/A
3:50 AM39 °FPassing clouds.14 mph87%30.30 "HgN/A
2:50 AM37 °FClear.13 mph93%30.30 "Hg10 mi
1:50 AM37 °FPassing clouds.9 mph93%30.30 "HgN/A
12:50 AM39 °FPassing clouds.10 mph93%30.30 "HgN/A
11:50 PM
Sat, May 28
39 °FDrizzle. Mostly cloudy.14 mph93%30.33 "HgN/A
10:50 PM39 °FPartly cloudy.8 mph93%30.33 "HgN/A
9:50 PM39 °FDrizzle. Mostly cloudy.8 mph87%30.33 "HgN/A
8:50 PM39 °FPartly cloudy.3 mph87%30.36 "HgN/A
7:50 PM39 °FPassing clouds.2 mph87%30.33 "HgN/A
6:50 PM39 °FPassing clouds.3 mph87%30.33 "HgN/A
5:50 PM39 °FPassing clouds.5 mph87%30.33 "HgN/A
4:50 PM41 °FPartly sunny.3 mph81%30.36 "HgN/A
3:50 PM41 °FPartly sunny.10 mph81%30.36 "HgN/A
2:50 PM41 °FPartly sunny.5 mph81%30.36 "HgN/A
1:50 PM41 °FPartly sunny.7 mph81%30.39 "HgN/A
12:50 PM43 °FPartly sunny.6 mph76%30.39 "HgN/A
11:50 AM41 °FPartly sunny.3 mph81%30.39 "HgN/A
10:50 AM39 °FScattered clouds.2 mph93%30.42 "HgN/A
Weather by CustomWeather, © 2016

See weather overviewHow to use our weather pages